RH
27 26 26 27 27 29 30 32 33 34 35 35 35 35 33 31 29 27 27 28 27 26 25 24 24 25 26 28 29 31 33 35 37 39 40 40 40 40 40 43 49 56 65 77 86 92 93 93 92 93 93 94 94 94 94 94 94 94 94 94 93 93 92 92 93 93 94 94 95 95 95 95 95 95 95 95 95 94 93 92 91 88 85 82 79 79
27 27 27 28 30 33 34 35 36 38 39 39 38 36 34 31 29 27 26 28 28 28 27 27 27 28 30 32 34 36 38 40 41 41 41 41 40 41 42 47 54 64 76 84 90 92 93 92 92 93 93 93 93 93 93 93 93 94 93 93 93 92 91 92 92 93 94 94 94 94 95 95 94 94 94 95 95 94 93 92 90 87 85 80 78 79
26 27 28 31 34 37 39 38 39 41 42 42 40 38 36 33 30 29 28 29 29 30 29 29 30 32 34 36 39 40 42 43 43 43 42 41 42 43 46 55 67 78 87 90 92 92 92 92 92 92 93 93 93 93 93 93 93 93 93 93 93 92 92 93 93 93 93 93 94 94 94 94 94 94 94 95 94 94 93 91 90 89 88 88 90 92
28 29 31 35 39 42 43 42 43 44 45 44 43 41 39 36 34 33 33 34 33 33 32 33 34 36 39 41 43 44 45 45 44 43 43 43 45 47 52 64 77 88 92 93 92 92 92 92 92 93 93 93 93 93 92 92 92 92 93 92 92 93 92 93 93 93 94 93 93 93 93 93 94 94 94 94 93 93 93 92 92 93 94 94 93 93
31 34 37 42 44 45 45 46 47 48 48 47 46 44 43 42 40 39 40 40 40 38 36 36 38 40 43 46 46 47 47 46 45 44 44 46 48 51 58 72 82 88 91 89 88 88 90 92 93 93 93 93 93 92 92 91 92 92 92 92 92 93 93 92 92 93 93 93 93 93 93 93 93 93 94 93 93 93 93 92 92 93 94 94 94 94
35 39 44 48 50 50 49 49 50 51 52 52 51 51 51 50 49 49 49 49 48 45 42 40 41 43 47 49 49 48 47 46 45 45 47 49 51 55 64 73 79 82 84 80 75 73 79 87 87 86 90 91 91 90 89 90 89 89 89 91 92 92 92 92 92 92 92 92 92 93 93 93 93 93 93 94 94 94 93 93 94 94 94 94 94 94
39 42 48 53 55 55 54 53 54 57 60 61 62 61 60 60 59 60 60 59 56 51 46 43 44 46 49 51 50 49 47 46 46 47 51 53 55 58 66 71 74 75 73 66 58 53 59 70 71 73 82 81 82 82 80 79 77 76 77 82 86 88 90 91 92 92 92 92 92 93 93 93 93 93 93 93 93 93 93 93 93 93 93 94 94 94
43 45 50 54 57 59 59 58 59 63 70 74 76 75 73 71 69 68 67 65 60 55 48 46 47 49 51 51 50 49 48 48 49 52 56 59 60 61 65 68 68 66 58 51 45 43 48 54 58 62 68 67 68 70 69 68 67 67 68 71 75 81 88 91 92 92 92 93 93 93 93 93 93 93 93 93 93 93 93 93 93 93 94 94 94 94
46 48 50 55 60 63 64 63 64 68 77 84 88 88 85 83 78 74 71 66 61 55 50 50 51 52 53 51 49 48 48 52 56 61 66 67 67 65 64 63 58 52 45 41 40 42 45 49 51 53 54 56 60 63 65 65 65 65 64 66 69 76 87 91 92 93 93 93 93 93 93 93 93 93 93 93 93 93 93 93 93 93 93 94 94 94
47 49 52 56 62 68 71 70 70 74 85 91 93 94 93 90 85 79 74 68 61 55 51 54 56 57 56 53 50 49 51 57 63 69 75 71 68 66 62 56 48 43 40 41 42 44 45 46 47 48 49 52 56 59 60 60 59 59 59 65 71 79 89 91 92 93 93 93 93 93 93 93 93 93 93 93 93 93 93 92 92 92 93 94 94 94
45 49 54 58 64 70 77 79 80 84 92 94 94 94 95 92 87 83 79 72 63 56 53 59 62 62 59 55 54 55 59 64 69 73 76 71 66 61 54 48 43 41 41 43 45 46 47 47 47 48 49 52 55 57 57 57 57 58 61 70 78 86 92 92 92 92 93 93 93 93 93 93 93 93 93 93 93 93 93 93 93 93 93 93 93 93
46 51 56 62 68 74 80 83 86 89 94 95 95 94 94 91 89 86 82 76 67 60 57 63 66 66 61 59 60 64 71 75 77 77 75 69 62 54 47 42 40 41 43 45 47 47 48 48 48 49 51 53 55 56 57 57 57 60 68 79 86 90 92 92 92 93 93 93 93 93 93 93 93 93 92 92 93 93 93 93 93 93 93 93 92 92
51 56 62 69 75 80 83 85 88 90 93 95 95 95 94 91 88 85 82 77 70 64 63 68 69 68 64 64 68 75 81 84 83 80 74 64 54 46 42 41 42 43 46 48 48 48 48 49 50 51 52 54 55 56 56 56 59 65 74 85 90 92 92 92 93 93 93 93 93 93 93 93 93 92 92 92 93 93 93 93 93 93 92 91 91 91
60 67 76 82 86 88 89 91 93 94 95 95 95 94 94 91 87 83 80 76 72 68 70 73 73 72 70 71 77 84 89 88 84 76 67 55 45 40 41 43 45 47 49 50 50 49 50 51 52 52 52 54 55 55 56 58 63 71 82 89 91 92 92 92 92 93 93 93 93 93 93 93 93 92 92 92 93 93 92 92 93 93 93 92 92 92
78 84 89 91 93 93 93 93 94 95 95 94 94 93 91 88 85 83 82 78 74 72 73 75 77 79 81 82 85 88 90 88 81 70 58 45 39 38 43 47 49 50 51 52 51 51 51 53 54 54 54 54 55 56 58 62 69 77 86 90 91 92 93 93 93 93 93 93 92 92 92 92 93 93 93 93 92 91 91 92 92 93 93 93 93 93
93 95 95 95 95 95 93 94 95 95 95 94 93 91 89 86 85 85 85 82 78 76 76 80 85 89 91 90 88 86 86 83 75 64 50 40 36 38 45 51 54 53 52 52 52 53 53 54 55 55 55 55 56 57 60 66 73 80 88 91 92 92 93 93 93 93 92 92 92 92 92 93 93 93 93 92 92 92 92 92 93 93 93 93 93 93
95 96 96 96 96 95 93 94 95 95 94 94 93 92 91 88 87 87 87 84 81 80 84 89 93 94 94 91 86 83 81 77 68 57 45 37 35 39 47 55 58 57 54 54 54 55 56 56 56 56 56 56 57 58 61 67 75 83 90 91 92 93 93 93 92 92 92 92 92 92 93 92 92 91 90 90 91 91 91 92 92 91 88 93 93 93
93 95 96 96 95 95 95 94 95 95 94 94 94 93 92 90 89 88 88 86 84 84 88 92 94 94 94 91 86 80 77 72 62 51 41 37 36 40 48 56 60 60 58 56 55 56 58 58 58 58 57 57 58 59 61 68 76 85 91 92 92 93 92 92 92 92 92 92 92 93 92 92 91 90 90 90 91 91 91 93 92 90 87 88 88 89
86 90 92 94 94 94 95 94 94 93 92 90 89 89 90 90 91 90 90 89 88 88 91 93 94 93 93 89 84 78 75 68 58 48 40 38 38 42 49 57 61 62 59 56 56 57 59 58 58 57 57 58 58 60 62 71 80 88 91 91 92 92 91 92 92 92 92 93 92 92 92 91 91 91 90 91 91 92 92 92 92 92 92 91 91 91
85 86 87 87 88 90 90 87 86 85 85 87 90 92 92 92 92 92 92 91 91 92 93 94 94 93 92 90 85 79 73 64 53 45 41 42 43 45 52 60 63 63 59 56 56 57 59 58 57 56 56 57 58 61 67 75 82 88 91 91 91 91 91 92 92 92 92 92 92 92 92 91 90 90 90 91 91 90 89 89 89 90 90 89 89 90
81 80 77 79 83 86 87 83 82 82 85 90 93 94 93 92 91 89 86 86 89 93 94 94 93 93 93 91 86 79 71 60 50 44 44 47 48 49 54 60 63 62 58 55 55 57 58 57 56 55 56 57 60 64 72 77 82 85 86 85 87 90 91 92 92 92 92 92 92 92 91 90 89 89 90 91 92 92 90 90 89 88 88 88 87 86
73 70 68 76 83 88 89 86 86 88 91 94 94 95 94 93 90 85 79 81 86 92 94 94 93 93 92 91 86 78 68 55 48 46 48 53 52 51 53 59 61 61 58 56 55 55 56 55 54 54 56 59 62 67 73 75 76 76 76 78 81 85 89 90 91 91 91 91 91 90 89 87 87 87 90 90 91 91 91 90 89 89 90 88 87 85
61 60 60 66 73 80 84 85 87 90 93 94 94 94 93 92 89 84 80 82 87 92 94 94 93 93 92 89 84 75 63 51 46 47 53 59 57 53 53 58 60 60 58 57 56 55 55 53 53 55 57 60 63 66 68 67 64 62 62 67 73 78 82 85 87 88 88 88 87 87 86 85 85 85 86 88 87 85 83 84 84 85 86 87 84 80
51 53 54 58 63 69 76 80 83 85 87 89 90 91 92 93 91 89 86 88 91 94 94 94 93 93 92 88 81 71 57 47 45 48 55 59 58 54 54 59 62 63 59 56 57 58 57 55 54 56 59 60 62 61 60 57 54 53 54 57 62 68 73 77 81 84 86 85 85 84 84 84 84 84 85 84 83 82 82 82 83 84 84 85 82 76
51 52 53 56 59 64 70 75 79 83 85 86 87 89 92 93 94 93 93 93 93 94 94 94 93 93 93 90 80 66 50 43 43 47 55 57 56 54 55 62 66 67 61 57 58 61 64 61 58 57 59 59 58 56 53 50 49 48 49 51 55 59 64 70 75 79 82 83 83 83 82 82 81 80 80 78 78 78 80 81 81 82 81 79 75 68
62 63 63 63 66 70 75 82 87 91 92 92 92 93 94 95 95 95 94 94 94 94 93 93 94 94 93 87 73 57 43 41 43 49 55 58 58 58 57 63 68 69 64 62 64 69 75 70 64 58 56 55 52 50 47 45 44 43 43 44 47 52 58 64 70 75 79 80 81 80 79 77 76 75 74 73 72 72 73 75 76 77 77 72 66 60
71 73 73 73 75 79 85 89 92 93 93 94 95 95 94 94 94 93 93 93 94 94 93 93 93 92 88 76 62 48 39 40 45 51 56 60 62 64 63 66 69 71 70 71 74 78 83 78 68 59 53 50 47 44 41 40 39 38 36 37 40 45 52 60 67 72 76 77 77 76 74 73 73 72 72 71 70 69 68 70 72 74 74 69 63 58
71 69 67 70 72 75 77 81 83 85 86 90 93 94 93 93 93 93 94 94 94 94 93 93 91 86 76 63 51 42 38 42 48 54 57 61 66 69 68 69 72 76 81 83 82 81 81 76 68 59 52 46 42 39 37 36 35 33 30 31 35 41 50 58 65 70 73 73 73 72 71 71 71 72 72 71 69 68 68 70 73 74 73 69 65 60
80 76 73 72 73 75 78 81 82 83 84 87 90 92 92 91 91 91 93 94 94 94 93 91 85 74 62 52 44 40 39 46 52 56 58 63 68 71 71 73 77 83 89 90 85 78 73 68 64 59 52 44 39 35 34 34 31 28 25 27 33 41 51 59 65 68 70 70 69 69 69 70 71 71 70 68 67 67 68 72 77 79 76 73 69 65
91 88 84 82 82 84 86 87 88 88 89 91 92 92 92 89 88 88 91 93 94 94 93 84 72 60 51 45 42 41 42 47 52 57 61 67 72 75 74 77 81 86 90 91 88 82 75 65 59 55 50 42 36 33 33 32 29 26 23 25 33 43 54 62 66 68 68 68 68 68 68 69 69 68 66 65 65 67 70 76 80 82 81 79 76 71
94 93 91 89 90 91 92 91 90 89 88 88 87 88 89 90 91 92 92 93 93 91 85 72 60 51 46 44 45 45 45 47 52 60 66 73 77 78 77 81 85 88 89 90 89 86 84 70 57 47 43 38 34 32 32 31 28 24 22 26 34 45 57 64 67 68 67 67 66 67 67 67 65 64 62 63 66 70 74 78 82 85 86 86 83 77
92 88 84 83 86 90 93 93 92 90 86 81 77 76 78 85 91 94 93 93 90 84 74 62 53 47 45 45 46 46 44 46 54 64 72 78 79 79 78 82 86 89 88 89 88 86 87 82 66 49 39 35 33 32 32 31 27 24 22 28 37 49 60 66 68 68 67 66 65 65 65 64 62 61 62 65 69 73 77 80 84 87 89 90 87 81
85 78 72 72 76 82 87 89 90 90 87 82 76 72 71 81 89 94 93 90 85 76 67 57 51 47 45 45 44 44 45 50 59 69 76 80 80 78 77 82 86 89 88 88 88 88 88 89 78 62 44 36 34 33 33 31 27 25 24 31 41 52 63 68 70 70 68 67 65 64 63 62 61 61 63 67 71 76 80 82 86 89 91 91 88 84
79 74 70 71 74 78 80 81 83 85 87 85 81 76 75 82 89 93 92 87 80 71 61 53 48 46 45 45 46 47 48 55 63 71 76 78 79 78 78 82 85 87 87 86 86 87 87 87 83 73 58 42 35 34 34 32 28 25 26 34 45 57 67 71 73 72 70 69 67 65 63 62 62 63 65 69 73 77 81 85 87 89 91 91 90 87
79 76 75 76 76 76 75 74 76 79 83 85 85 83 82 85 88 90 90 85 78 68 56 49 45 45 46 49 50 51 53 59 65 70 75 77 78 78 80 82 84 86 87 87 87 87 87 83 80 76 67 50 40 35 35 33 29 26 27 37 48 60 69 75 76 76 74 72 70 68 66 65 66 67 69 72 75 77 81 85 88 90 91 91 91 91
83 81 80 78 77 76 74 72 71 73 78 83 87 89 88 87 86 85 85 83 76 66 55 49 46 47 49 51 54 55 57 60 64 69 74 76 79 80 82 84 85 87 88 88 88 88 88 83 77 71 65 55 46 39 36 34 30 27 28 38 49 60 69 76 79 80 79 77 75 72 71 71 72 72 73 74 75 77 79 83 86 89 91 91 91 92
87 84 81 80 80 79 77 73 71 70 72 80 88 93 92 90 88 87 87 84 76 66 54 51 52 53 55 56 57 58 60 63 66 70 74 77 80 82 84 85 86 87 89 88 88 88 88 85 77 68 60 55 50 45 40 36 31 28 30 38 49 59 68 75 79 82 83 82 80 78 77 77 77 77 76 76 75 75 75 78 81 85 88 90 91 91
87 85 84 85 84 82 78 74 71 70 70 81 89 93 93 92 90 89 88 84 77 68 61 60 59 59 58 59 60 62 64 67 70 72 75 78 81 84 85 86 86 86 87 88 88 88 88 86 81 72 61 54 50 46 44 40 35 32 32 40 49 59 67 73 78 82 85 84 84 83 82 82 81 79 78 76 75 73 73 74 76 80 84 86 86 87
86 85 84 83 80 76 73 72 71 72 73 84 90 93 93 92 91 90 89 85 79 72 67 64 61 60 60 61 62 65 69 71 73 74 76 79 82 84 85 85 85 85 85 86 87 87 87 84 80 75 68 60 53 48 44 41 38 37 38 42 49 57 65 71 76 80 84 85 86 85 84 83 81 79 77 75 73 72 72 73 75 78 82 83 82 81
81 79 77 75 72 69 67 68 71 74 79 88 92 93 92 92 92 92 89 84 79 73 68 65 63 62 61 62 64 68 72 73 75 76 78 80 81 82 84 84 84 84 84 84 84 84 83 79 75 70 67 63 58 51 46 41 41 42 46 51 55 59 64 69 74 78 83 85 87 87 85 83 80 78 76 74 73 73 74 76 77 80 83 85 86 85
75 72 69 66 64 63 63 67 72 78 85 91 93 93 93 93 92 91 89 83 77 72 69 67 64 62 62 64 67 70 72 74 75 76 78 79 80 80 81 82 82 83 83 82 81 79 78 74 69 65 61 60 57 52 47 42 42 46 53 60 65 67 67 69 73 78 82 84 85 86 85 82 80 77 76 74 74 74 76 79 82 84 87 89 91 91
71 68 65 63 62 63 65 69 75 82 90 92 93 93 93 93 92 90 86 80 77 74 71 68 66 64 65 67 68 70 71 71 72 74 76 77 78 79 79 80 81 82 82 81 79 75 72 69 65 62 60 59 57 53 47 42 42 47 55 65 71 73 71 70 73 77 81 83 83 84 83 82 80 79 78 77 76 76 77 81 85 89 91 92 93 93
69 68 66 66 68 70 72 76 82 87 92 92 92 92 92 92 91 89 84 80 78 77 75 71 69 69 70 71 69 67 66 67 68 70 73 74 75 76 76 78 79 81 82 82 78 73 67 63 60 58 56 56 56 54 49 43 43 47 55 67 76 80 79 75 74 76 79 81 82 82 82 82 82 81 81 80 78 78 78 81 86 90 93 93 93 93
74 73 72 74 76 79 80 84 88 91 93 93 92 92 92 92 90 88 85 83 81 79 76 74 74 75 76 73 69 64 61 61 63 66 69 70 71 72 73 75 77 79 81 82 79 74 66 60 55 53 53 54 54 53 50 48 48 52 59 70 79 84 85 82 80 79 80 81 81 82 82 83 84 84 83 80 79 78 78 83 87 91 92 93 93 93
77 76 76 79 81 82 83 87 90 93 93 92 92 92 92 91 90 88 86 84 82 80 78 80 81 81 79 74 68 62 58 58 59 61 64 66 68 69 71 72 74 76 78 79 77 75 70 62 56 51 50 51 52 52 52 53 54 58 65 74 80 83 83 82 82 83 84 83 82 82 83 85 86 86 84 81 79 78 80 86 90 92 92 93 93 93
71 73 76 79 82 84 85 88 90 92 93 92 92 92 91 90 89 87 86 84 83 83 85 86 86 84 79 74 68 63 60 58 58 59 60 62 64 66 68 70 72 74 76 75 73 71 68 63 57 52 50 49 49 49 52 55 59 64 71 77 81 81 78 78 80 83 85 85 84 83 84 85 86 87 86 83 81 80 82 89 92 93 93 93 94 94
71 75 80 84 86 87 89 90 92 92 92 92 92 91 90 89 87 86 85 85 86 88 89 88 86 83 79 76 72 68 65 62 61 60 60 61 61 62 64 67 70 72 72 70 68 65 63 60 57 54 52 50 48 47 49 55 62 69 76 80 81 80 78 77 79 82 84 85 84 84 85 86 87 88 87 85 83 83 85 90 93 93 93 94 94 94
79 84 87 89 90 90 91 92 92 92 92 92 91 90 89 88 86 85 85 86 88 89 89 88 85 82 81 80 77 74 71 68 66 64 63 63 62 62 63 65 67 67 67 65 62 60 59 58 57 55 53 52 50 48 50 56 64 72 78 81 81 81 80 79 80 82 84 84 84 84 85 87 89 90 90 87 86 86 88 91 93 94 94 94 94 94
89 91 91 92 91 91 91 92 92 92 92 92 91 90 88 87 86 86 87 89 90 89 88 86 85 84 85 84 81 78 75 72 70 68 67 68 67 66 65 65 64 63 61 58 56 55 55 57 57 56 55 53 52 52 54 60 67 74 78 80 82 82 82 82 82 83 83 83 82 83 85 87 89 91 92 91 90 90 90 93 94 94 94 94 94 94
91 92 92 92 92 91 91 92 92 92 92 92 91 89 87 86 86 87 89 90 89 89 87 86 86 86 87 86 83 80 77 74 72 71 71 72 72 72 70 68 65 62 57 53 50 48 47 50 54 57 58 56 55 57 60 64 70 74 77 78 81 83 85 85 84 83 83 82 82 83 84 86 88 90 92 92 92 91 91 93 94 95 95 94 94 94
91 92 92 92 92 92 92 92 92 92 92 91 90 88 86 86 86 87 89 89 89 88 88 87 87 87 87 86 84 81 78 76 75 75 75 76 76 75 74 71 68 65 59 54 49 45 43 42 45 51 58 58 60 62 64 68 72 74 75 76 80 84 87 86 85 84 83 83 83 84 85 87 89 91 93 92 92 92 92 93 94 95 95 95 95 95
Wind_Speed
32 32 33 33 33 34 34 35 35 34 34 34 34 33 33 32 30 28 26 24 22 21 21 20 19 19 19 19 19 20 20 21 21 22 23 23 24 25 26 27 28 28 27 26 26 26 27 28 28 29 30 31 31 31 31 30 30 30 30 31 31 30 30 29 29 29 28 28 28 27 27 27 26 26 27 27 27 28 29 30 30 31 31 32 32 31
33 33 34 34 34 34 35 36 35 35 35 35 34 34 34 33 31 28 26 24 22 21 20 20 19 19 19 19 20 20 21 21 22 23 24 25 26 27 27 28 28 28 27 26 26 27 28 29 30 30 31 31 31 31 31 30 30 30 31 31 31 31 30 29 28 28 27 27 27 27 26 26 26 26 26 27 28 29 30 30 30 30 30 30 30 30
33 34 34 34 34 34 35 36 36 35 35 35 35 34 34 32 31 29 27 25 23 21 20 20 20 19 19 19 20 20 21 22 23 24 25 26 27 28 29 29 28 27 26 27 27 28 29 30 31 31 31 31 31 31 31 30 31 31 31 31 30 30 29 28 27 26 26 27 27 26 26 26 26 26 26 27 28 29 29 29 29 29 29 29 29 28
34 34 33 34 34 34 35 36 36 35 35 35 34 34 33 32 31 29 27 26 24 23 21 20 20 20 20 20 20 21 22 23 24 25 27 27 28 29 29 28 27 26 27 27 28 29 30 31 31 31 31 31 30 30 30 30 30 31 30 30 29 28 27 27 26 26 26 26 26 26 26 26 26 26 26 27 28 28 28 28 28 28 28 28 29 29
34 33 33 34 34 35 36 36 36 35 35 34 34 33 33 32 30 29 28 27 26 24 23 21 20 19 20 20 21 22 23 24 25 26 27 28 29 30 29 28 27 27 28 29 30 31 31 31 31 31 30 30 29 29 29 30 30 30 29 29 28 27 27 26 26 26 26 26 26 26 26 26 26 26 27 27 27 28 28 29 28 28 29 30 30 31
34 33 33 34 34 35 36 36 35 34 34 34 33 33 32 31 30 30 29 28 27 26 24 22 20 19 19 20 21 22 24 25 26 27 28 29 30 30 29 28 27 28 29 30 31 32 32 31 31 30 29 28 28 28 29 29 29 29 29 28 28 27 27 26 26 26 26 26 27 27 27 27 27 27 28 28 28 28 29 29 29 30 30 31 31 32
34 34 34 34 35 36 36 35 34 33 32 32 32 32 31 31 30 30 30 29 28 26 24 22 20 19 19 20 21 23 24 26 27 28 28 29 31 31 29 29 29 30 31 32 33 33 32 30 29 27 27 27 27 28 28 28 28 28 28 27 27 27 26 26 26 26 26 26 27 27 27 28 28 28 29 29 29 29 30 30 30 31 31 31 31 32
34 35 35 34 34 35 35 34 33 31 30 29 29 30 31 31 30 30 30 30 28 27 25 23 21 20 20 21 22 24 25 26 27 28 29 30 31 31 31 30 31 32 33 33 33 32 30 28 26 25 26 26 27 28 28 28 28 28 27 27 27 26 26 26 26 26 26 26 26 27 27 27 27 28 28 28 29 29 29 29 30 30 30 30 30 30
34 35 35 34 33 33 33 33 32 30 28 27 27 28 29 30 31 31 31 30 28 26 24 23 22 22 21 22 23 25 26 27 27 28 28 29 30 31 31 32 33 34 34 33 31 29 28 26 25 25 26 27 27 28 27 27 27 27 27 26 26 25 25 26 26 26 25 26 25 25 26 26 26 26 26 27 27 27 28 28 28 28 28 28 28 28
35 35 34 34 33 32 31 31 31 29 27 26 26 26 27 29 31 32 32 31 29 26 24 23 22 23 23 24 24 25 26 27 28 27 26 28 30 31 32 34 35 35 34 32 29 27 26 25 25 25 26 27 27 27 26 26 26 25 25 25 25 25 25 25 25 25 25 25 25 24 25 25 25 25 25 25 26 26 26 26 26 26 27 27 27 27
36 35 35 34 33 32 30 28 28 27 27 26 26 26 27 28 30 32 33 31 29 26 24 22 22 23 25 26 26 26 27 28 28 28 27 29 31 33 34 36 36 34 32 30 28 26 25 25 25 26 27 27 27 26 25 25 24 24 24 24 24 24 25 25 25 25 24 24 24 24 24 24 24 25 25 25 25 25 26 26 26 26 26 27 27 27
36 36 35 34 33 31 30 28 27 27 27 26 27 27 28 29 30 31 31 30 28 26 25 23 23 23 24 26 26 26 27 27 27 28 29 31 33 35 37 37 36 34 31 29 27 26 25 25 26 27 27 27 26 25 24 24 23 23 23 23 24 24 24 24 24 24 24 24 24 24 25 25 25 25 25 25 25 25 25 25 26 26 26 26 26 26
36 35 34 33 32 31 30 29 28 27 27 26 26 27 29 30 31 30 29 28 26 25 24 24 24 24 25 25 25 25 25 26 27 29 31 33 35 37 37 37 35 33 31 29 27 26 26 27 27 28 28 27 26 24 23 23 22 22 22 23 23 24 24 24 24 24 24 24 25 25 25 25 25 25 25 25 25 25 25 25 25 25 26 26 26 26
35 34 33 31 30 30 28 27 27 26 26 26 26 28 30 31 31 29 27 26 25 24 23 24 25 25 25 25 24 23 23 25 28 30 33 35 36 37 36 36 34 33 31 29 28 28 28 28 29 29 28 27 25 24 23 23 22 22 22 22 23 23 23 24 24 24 24 25 25 25 25 25 25 25 25 24 24 25 25 25 26 26 26 26 26 26
31 30 29 29 29 28 27 27 27 27 27 27 28 30 32 32 30 27 26 25 25 24 23 24 24 25 24 23 22 22 24 26 29 32 35 37 37 36 35 34 33 32 30 29 29 29 29 30 30 30 29 27 26 24 24 23 22 22 22 22 23 23 23 24 24 24 24 25 24 24 24 24 24 24 24 24 25 25 25 25 26 26 26 27 27 27
29 28 27 28 29 29 29 28 27 28 28 28 30 31 32 31 28 25 24 24 24 24 23 24 24 24 23 21 21 23 26 29 32 34 37 38 37 36 34 32 32 31 30 30 30 30 31 31 30 30 29 28 26 25 23 23 22 22 22 22 23 23 24 24 24 24 24 24 24 24 24 24 24 24 24 25 25 25 26 26 26 26 27 27 27 28
28 28 28 29 29 29 29 28 28 27 28 29 30 31 30 29 26 24 23 23 23 23 22 22 22 23 23 23 23 25 28 31 34 36 37 38 37 35 32 31 30 30 30 30 31 31 32 32 31 31 30 28 26 24 23 22 22 22 22 23 24 24 24 24 24 24 23 23 23 24 24 24 24 24 24 25 25 25 26 26 26 26 26 27 27 28
28 28 28 28 29 29 28 28 28 28 28 29 30 30 29 26 24 23 22 23 23 23 22 21 21 22 23 25 26 28 30 32 34 35 36 37 36 35 32 30 29 30 31 31 32 32 32 32 32 31 30 28 26 24 23 22 22 23 23 24 24 24 24 23 23 23 23 23 23 23 24 24 24 24 24 24 25 25 26 26 26 26 26 27 27 27
29 29 28 28 29 29 28 29 29 30 30 30 29 28 26 24 23 22 23 23 23 23 22 21 21 22 23 26 28 30 31 32 33 34 35 36 36 34 32 30 29 30 31 32 32 32 32 32 32 31 29 26 24 23 23 23 23 23 24 24 24 24 23 23 22 22 22 22 23 23 24 24 24 24 24 24 24 25 25 25 26 26 26 26 26 26
29 29 28 28 28 29 30 30 30 29 28 26 25 23 23 23 23 23 24 25 25 24 23 23 23 23 23 26 28 30 31 32 32 33 34 35 35 33 31 29 29 30 32 32 32 32 33 33 32 31 28 25 23 23 24 24 24 24 24 24 24 23 22 22 21 21 22 22 22 23 24 24 24 24 24 24 25 25 25 25 25 25 26 25 25 25
28 29 29 28 28 29 29 29 27 25 23 22 21 22 22 23 23 24 25 26 26 27 27 26 25 23 23 25 28 30 31 31 31 31 33 33 33 32 30 29 29 30 32 33 33 33 33 33 32 30 27 25 24 24 25 25 25 25 25 24 23 22 21 21 20 20 21 21 22 22 23 23 23 23 24 24 25 25 26 26 26 26 27 27 27 26
29 30 30 28 27 27 28 27 25 22 20 20 21 22 23 23 24 25 26 26 28 29 30 28 25 23 23 25 28 30 30 30 29 29 31 31 32 31 30 29 29 31 32 33 33 34 34 34 32 29 26 25 26 26 26 27 26 26 25 23 22 20 20 19 19 19 19 20 21 21 22 22 22 22 23 24 24 25 26 26 27 27 27 27 28 28
29 30 29 28 27 27 26 26 24 22 20 20 21 22 23 24 25 25 26 27 29 31 31 28 25 23 23 26 28 29 29 29 28 28 28 28 30 31 31 30 30 31 33 34 34 34 35 34 31 29 27 26 27 28 28 28 28 26 24 22 20 18 17 17 17 17 18 19 20 21 21 21 21 22 22 23 24 25 25 26 26 27 27 27 28 28
28 28 27 26 25 25 25 24 24 23 22 21 22 23 24 25 26 26 27 28 30 31 30 26 24 23 24 26 28 28 28 27 27 27 27 27 29 31 31 31 31 32 33 34 34 34 34 33 31 29 28 28 28 29 29 29 28 26 23 20 18 17 16 15 16 16 17 18 19 20 20 21 21 22 22 23 24 24 25 26 26 26 27 28 28 28
27 26 25 24 23 23 23 23 23 23 23 23 23 23 24 26 27 29 30 31 31 30 27 24 23 23 24 25 26 27 26 26 26 26 25 27 29 31 31 31 31 32 34 34 34 33 33 32 30 29 28 28 29 29 29 29 27 25 22 19 17 16 15 15 16 16 17 18 19 20 20 21 21 22 22 23 23 24 24 25 25 26 27 28 28 28
24 24 23 23 22 22 22 22 23 23 23 24 24 25 26 28 29 30 31 31 29 26 23 22 21 21 22 23 24 25 25 25 25 25 24 26 29 31 31 31 30 31 33 34 34 32 31 31 30 29 28 29 29 29 29 28 26 23 21 19 17 16 15 15 15 16 17 18 19 19 20 21 21 21 22 22 22 23 23 24 25 26 27 28 28 28
21 21 21 21 21 21 21 21 22 22 22 23 24 25 26 27 28 29 28 25 23 22 20 19 19 21 21 22 23 23 24 24 24 24 24 25 27 29 30 30 30 31 32 33 32 30 28 28 29 29 29 29 29 29 28 27 25 23 21 19 18 17 16 15 15 16 16 17 18 19 20 20 21 21 21 22 22 23 23 24 25 26 27 28 28 28
20 20 20 21 21 20 20 20 20 20 21 21 22 22 23 25 26 27 26 26 25 23 20 18 20 21 22 22 22 23 23 23 23 23 24 25 26 28 29 30 30 29 29 30 31 30 28 28 28 29 29 29 29 29 28 26 25 23 21 19 18 17 16 16 15 15 16 17 18 19 20 21 21 21 21 22 22 23 23 24 25 26 27 28 28 27
20 20 21 22 22 21 21 21 20 20 21 21 21 22 24 25 26 28 29 30 28 24 20 19 21 21 21 22 22 23 23 22 22 22 24 25 26 27 29 29 28 28 27 28 31 33 31 30 29 29 30 29 29 28 27 26 25 23 22 20 19 18 17 16 15 16 16 17 18 19 20 21 21 21 21 22 23 23 24 25 26 26 27 27 27 27
19 20 22 23 23 23 22 22 22 22 22 23 23 23 24 25 26 27 28 28 27 24 20 20 20 20 20 21 22 23 23 22 22 22 23 24 25 27 28 27 27 26 25 27 30 33 33 32 30 29 30 30 29 28 27 27 25 24 23 21 20 18 17 16 16 16 16 17 18 19 20 20 21 21 22 23 24 25 25 25 25 26 26 27 27 26
20 21 23 24 24 23 22 22 23 23 24 25 25 25 25 24 24 24 24 24 23 20 19 19 19 19 19 19 20 21 22 22 22 21 22 23 24 26 27 26 25 25 24 25 26 28 31 33 33 31 30 29 29 28 28 27 26 25 24 23 21 19 17 16 16 16 16 17 17 18 19 20 20 21 23 24 25 26 26 25 25 25 25 26 26 26
24 25 26 26 25 24 22 22 22 23 25 26 26 26 25 23 21 20 20 19 17 16 16 17 17 17 18 18 19 21 22 22 21 20 21 22 24 25 26 25 24 24 24 24 24 24 25 31 34 34 31 30 29 28 28 27 27 26 25 24 22 20 18 17 17 16 16 17 17 18 19 20 21 22 24 25 26 27 26 25 24 23 23 24 25 25
30 30 29 29 29 28 27 24 23 23 24 25 26 26 24 21 18 16 15 15 15 15 15 16 16 16 17 18 19 20 21 21 20 19 20 21 23 24 25 25 24 24 25 26 26 26 25 28 32 35 33 30 29 28 28 27 27 26 26 25 23 21 19 18 17 17 17 17 18 19 20 21 23 24 26 27 27 27 26 25 23 22 22 22 23 24
34 33 32 32 32 31 30 27 25 23 23 23 23 23 21 18 16 14 14 15 16 16 16 15 15 15 16 18 19 20 20 19 19 19 20 20 22 23 25 24 24 25 26 27 27 28 28 29 31 34 34 32 29 28 27 27 27 26 26 25 23 22 20 19 18 18 18 19 20 21 22 23 25 26 27 28 28 27 26 24 22 21 20 20 21 23
35 34 33 32 31 30 28 25 23 22 21 20 19 18 17 16 15 15 17 18 18 17 16 15 14 15 15 17 18 19 19 19 18 18 19 20 21 23 24 24 24 25 26 27 28 29 30 31 32 33 34 33 31 28 26 27 27 26 25 24 23 22 20 20 19 19 20 21 22 23 24 25 27 28 29 29 28 27 26 24 22 21 19 19 19 20
34 33 31 30 28 26 24 23 22 21 20 18 16 15 15 15 15 17 18 19 18 17 15 14 14 14 15 16 17 18 18 18 18 18 19 20 21 22 22 23 24 24 25 26 27 29 30 32 32 32 32 33 32 30 27 26 26 25 25 23 22 21 20 20 20 20 21 22 23 24 26 27 28 29 29 29 29 27 26 24 23 22 20 19 18 18
31 30 28 27 25 23 23 23 22 21 19 16 15 14 14 15 16 17 18 19 18 16 14 13 13 14 15 15 16 17 18 18 18 18 19 19 20 21 21 22 23 24 24 25 26 28 29 31 32 32 32 32 32 31 30 28 26 25 24 23 21 20 20 19 20 21 22 23 24 25 26 27 28 29 30 30 29 28 27 26 24 23 22 21 20 19
29 28 26 25 24 24 24 23 22 20 18 15 14 14 15 15 16 17 18 19 17 15 13 12 12 13 14 15 16 16 17 17 18 18 18 19 19 20 21 22 23 24 24 24 25 26 27 29 30 31 32 31 30 30 30 29 28 27 25 23 21 20 20 20 20 21 22 23 24 25 26 27 28 29 30 30 30 30 29 28 26 25 24 23 22 21
29 28 27 26 26 26 26 25 23 20 16 14 14 15 16 16 17 18 19 18 16 14 12 12 12 13 14 14 15 15 16 16 17 18 18 19 19 20 21 22 23 24 24 24 24 24 25 26 28 29 30 31 31 30 28 28 28 27 26 24 21 20 19 20 20 21 22 23 24 25 26 27 28 29 30 31 31 31 30 29 28 26 25 25 25 24
30 30 29 29 29 28 27 25 23 19 15 13 13 15 16 16 17 18 18 16 14 12 11 11 11 12 13 14 14 14 15 15 16 17 18 19 19 20 21 22 23 23 23 23 23 23 23 24 25 27 28 29 30 30 28 27 26 26 26 26 24 22 21 21 21 22 22 23 24 25 27 28 29 30 31 31 31 31 30 29 28 26 25 25 25 26
31 31 31 31 30 29 27 25 22 18 15 13 13 14 16 17 18 17 15 13 11 10 9 10 11 12 13 13 13 13 14 14 15 16 18 19 20 21 21 22 22 23 23 22 22 21 22 23 24 26 27 27 28 28 27 26 25 25 25 26 26 25 23 23 23 23 24 24 24 25 27 29 30 31 32 31 31 30 29 28 27 25 24 23 23 24
30 30 30 29 29 27 25 23 20 17 14 12 13 14 16 17 16 15 12 10 9 8 9 10 11 12 13 13 13 13 13 14 15 16 17 19 20 21 21 22 22 22 22 21 21 20 21 22 24 25 26 26 26 26 26 24 23 23 23 24 26 26 25 24 24 24 25 25 25 26 28 29 31 32 33 32 31 29 28 26 25 24 23 22 22 22
27 27 26 26 25 24 22 20 18 15 13 12 13 15 16 16 14 12 10 8 7 7 9 10 11 12 13 14 14 14 13 13 14 15 17 18 19 20 21 21 21 21 21 21 21 21 21 21 22 23 24 24 24 24 24 23 22 22 22 23 25 26 27 26 25 25 25 26 26 27 29 30 32 33 33 32 31 29 27 25 24 23 22 21 21 21
23 23 23 22 22 21 19 17 15 13 12 12 13 14 15 14 12 10 8 7 7 8 9 11 12 13 14 15 16 16 15 15 15 16 17 18 19 20 21 20 20 20 20 20 21 22 22 22 22 22 21 21 21 21 21 21 21 21 21 22 23 24 26 26 26 26 26 27 27 28 30 31 33 34 34 33 31 29 27 26 24 22 21 20 20 20
20 20 20 20 20 19 16 14 13 12 11 11 12 12 12 11 9 7 6 6 7 8 10 11 12 14 15 16 17 17 17 17 17 18 18 19 20 20 21 21 20 20 20 19 20 21 23 23 22 21 19 19 18 18 17 18 19 20 21 21 22 22 23 24 24 25 26 27 29 30 31 32 33 34 35 34 32 30 28 26 25 23 21 20 19 19
19 19 19 19 18 16 14 12 11 10 9 8 9 10 10 9 7 6 5 6 7 9 11 12 13 15 16 17 18 18 19 20 21 21 21 21 22 22 22 22 21 21 20 19 19 20 21 22 21 20 18 17 15 15 15 16 18 19 20 21 21 22 22 22 23 24 25 28 30 31 32 33 34 35 35 35 33 31 28 27 25 24 22 20 19 18
17 17 17 17 16 14 12 10 8 7 6 6 8 8 8 7 6 5 6 7 8 9 11 13 14 15 17 18 18 19 20 21 22 23 24 24 24 24 24 24 23 22 20 19 18 19 19 18 18 17 16 15 14 14 14 15 17 19 20 21 22 22 22 23 23 24 26 28 30 32 33 34 35 35 36 35 34 32 29 27 25 23 21 20 20 20
17 16 15 15 14 12 9 7 5 4 4 6 7 7 7 6 6 6 6 7 8 10 12 14 15 16 17 18 19 20 20 21 22 23 24 25 26 26 27 26 24 22 20 18 17 17 16 15 14 13 13 12 13 14 14 15 16 18 19 20 21 22 23 24 25 26 28 30 31 32 33 34 35 36 36 36 35 33 30 27 24 22 21 21 22 22
15 14 13 12 11 8 6 4 3 3 5 7 7 6 6 6 6 6 6 8 9 11 13 14 15 17 18 18 19 20 20 20 21 21 22 24 26 27 28 27 25 22 19 17 16 15 14 12 11 10 10 11 12 14 15 16 17 18 18 19 21 22 23 25 26 28 30 31 32 32 33 33 34 35 35 35 35 34 31 27 24 22 22 23 24 24
13 12 10 9 8 6 4 2 3 4 6 6 6 6 6 5 6 6 7 8 10 12 13 15 16 17 18 18 19 19 19 19 19 20 21 23 24 26 27 28 26 23 20 17 16 14 13 10 7 7 9 11 12 14 15 17 17 18 18 19 20 21 23 26 28 30 31 32 33 33 33 34 34 34 34 34 34 32 30 26 24 23 24 24 25 25
12 10 8 7 6 4 3 3 4 5 6 6 6 6 6 5 6 6 8 9 10 12 14 15 16 17 18 18 18 18 18 18 18 18 20 22 23 25 26 26 25 23 21 19 18 17 16 12 9 6 6 9 11 13 15 17 18 18 19 19 20 21 24 27 29 31 32 33 33 34 35 35 34 33 32 32 32 31 29 26 24 23 25 25 25 25
Wind_Direction
310 311 311 311 311 311 311 312 313 314 316 316 317 318 318 318 319 319 320 321 321 321 320 319 318 317 317 316 316 316 316 317 318 318 319 319 320 322 324 325 326 326 326 324 323 321 320 320 319 318 317 316 315 313 313 312 311 311 311 310 310 309 307 305 303 301 299 298 297 296 295 295 294 294 295 296 295 293 290 289 288 288 288 289 291 293
309 309 310 310 310 310 310 311 312 313 315 316 317 317 318 318 319 320 321 322 323 323 323 321 320 319 318 318 318 318 318 318 319 320 321 322 324 325 327 328 329 328 327 325 323 321 320 319 318 317 316 315 313 312 311 311 311 311 311 311 311 310 309 307 304 302 299 297 295 295 295 295 296 297 297 298 295 292 291 292 293 294 294 293 292 294
308 308 308 309 308 307 308 309 311 313 314 315 316 317 318 319 320 322 324 325 325 325 325 323 322 320 319 319 318 318 319 320 321 322 323 325 327 329 331 331 330 328 326 324 322 321 320 318 316 315 314 314 313 311 311 311 311 312 312 312 312 311 310 307 304 301 299 296 294 294 296 296 297 298 299 298 295 293 295 295 296 296 296 296 297 297
307 307 307 307 306 306 306 308 310 312 314 315 316 317 319 320 322 324 326 328 328 328 327 325 323 321 319 318 318 318 319 320 322 324 326 329 331 333 333 332 329 326 325 323 321 320 318 316 315 314 314 313 313 312 312 312 312 313 313 313 312 311 309 306 303 300 298 296 295 296 296 298 298 298 299 297 296 296 298 297 298 299 299 298 298 297
306 306 306 305 304 305 306 308 311 313 314 316 317 318 319 321 324 326 328 329 329 329 327 325 323 320 318 317 317 318 319 322 324 327 329 332 334 335 334 331 328 325 324 322 320 318 317 315 314 314 314 314 314 314 314 314 314 314 314 313 312 311 309 307 304 301 299 298 298 297 298 299 298 297 297 297 297 298 299 299 300 300 299 299 299 298
305 304 304 303 303 304 306 309 311 314 316 317 318 318 320 321 324 327 328 329 328 327 326 324 321 318 316 316 316 318 321 323 326 329 332 334 336 336 334 330 327 325 323 320 319 318 316 315 315 315 315 315 315 316 316 316 316 315 314 313 312 311 310 308 306 304 302 301 300 299 299 299 298 297 297 297 297 298 298 299 298 298 298 298 298 298
303 303 303 303 303 305 307 310 312 315 317 318 318 318 319 321 323 325 326 326 326 324 323 321 318 316 315 315 317 319 323 326 330 333 335 336 337 336 332 328 326 324 322 320 319 318 317 317 317 317 317 318 318 319 319 319 317 315 314 313 312 311 311 310 309 307 306 304 302 301 300 300 299 299 298 298 298 297 298 297 297 297 297 298 297 297
302 302 302 303 305 307 309 311 313 315 317 317 316 316 317 318 321 323 323 323 322 321 320 319 317 315 314 316 319 322 326 330 334 336 337 337 336 333 330 327 324 322 322 322 321 321 320 320 321 321 321 322 323 323 323 321 319 316 314 312 312 312 312 312 311 310 309 307 306 304 303 302 302 301 300 299 299 298 298 298 298 297 297 297 297 297
299 300 302 303 305 308 310 311 312 314 315 314 311 311 312 314 317 319 320 320 320 320 319 318 317 315 315 318 322 326 330 334 337 338 336 334 331 329 326 324 323 323 323 323 323 323 323 323 324 325 326 326 326 326 325 323 320 317 315 313 313 314 315 315 314 313 312 311 310 309 308 306 305 304 303 302 301 300 300 299 299 299 298 298 298 298
299 301 303 304 306 307 309 310 311 312 312 310 306 305 306 310 314 316 317 317 318 319 319 318 317 316 317 320 324 329 334 337 338 336 332 329 327 324 323 322 323 323 324 324 324 324 324 324 326 327 328 329 329 328 326 323 320 317 315 315 316 317 317 317 316 315 314 314 313 312 311 310 308 306 305 304 304 303 302 302 301 300 300 300 299 299
300 302 304 306 307 307 307 307 308 309 309 306 303 301 302 306 311 314 315 316 317 318 318 317 316 316 318 322 327 333 336 337 336 333 328 326 324 323 322 323 324 325 325 325 325 325 325 326 328 329 330 331 330 329 327 324 321 319 318 319 319 319 319 318 317 317 317 316 315 314 312 310 309 308 307 306 306 306 305 304 303 302 301 301 300 300
301 303 305 306 307 306 305 305 306 306 306 303 301 300 301 304 309 313 313 314 315 316 317 316 315 316 319 324 330 334 336 335 331 327 324 323 322 323 323 324 326 327 328 327 327 327 328 329 331 332 332 332 331 329 327 325 323 322 323 322 321 320 319 318 318 318 318 317 315 313 312 310 309 309 308 308 308 308 308 307 306 305 303 303 303 302
303 304 306 306 305 304 304 305 305 304 303 301 298 297 300 304 309 312 311 311 312 314 315 314 315 316 320 326 331 334 333 329 325 322 321 321 322 324 325 326 328 330 330 330 330 331 333 333 334 334 334 333 331 330 328 327 326 326 327 324 321 320 319 319 319 318 317 315 314 313 312 311 311 311 311 311 311 310 310 309 308 307 306 306 306 305
304 305 305 304 302 301 302 302 301 301 299 298 296 297 300 304 308 310 310 309 310 311 313 313 314 317 322 327 331 331 327 322 320 319 320 321 324 326 327 328 330 331 332 332 333 335 336 336 335 335 334 333 332 331 331 330 330 329 327 323 321 321 320 319 318 317 315 314 313 313 312 313 313 313 313 313 312 311 310 309 309 308 308 307 306 305
302 302 300 298 296 296 296 297 297 297 296 295 294 295 299 303 307 309 308 308 309 310 312 313 315 318 321 324 327 326 321 317 317 318 320 323 326 329 330 330 331 332 334 334 335 336 337 337 335 335 334 334 333 333 333 333 332 330 327 324 323 322 321 319 317 315 314 313 313 313 314 314 315 315 314 314 313 312 311 310 310 309 308 307 306 304
299 297 294 293 293 293 293 293 293 294 294 293 294 296 300 304 307 308 306 306 307 309 311 314 316 316 315 318 322 322 320 318 318 320 322 324 328 331 332 332 331 332 334 334 335 336 336 336 335 334 334 334 334 334 335 334 333 331 327 325 323 322 320 318 316 314 313 313 313 314 315 315 315 315 314 314 313 313 312 312 311 310 308 307 305 303
294 293 292 291 292 292 294 294 294 293 293 294 296 299 302 305 306 305 303 303 305 307 310 311 310 308 307 312 319 322 323 321 321 321 322 324 328 332 333 333 332 332 333 333 334 334 335 334 334 334 334 334 334 335 336 336 335 332 328 325 323 321 319 317 315 314 313 314 314 315 315 315 315 314 314 314 314 314 313 312 310 310 309 306 305 304
291 291 291 291 291 292 293 293 293 293 293 294 296 299 302 302 301 300 300 301 303 305 307 306 302 299 301 307 316 323 325 323 321 321 322 324 328 332 335 334 332 331 331 331 332 333 333 333 333 333 333 334 334 336 338 339 337 333 328 325 323 320 318 316 315 315 315 315 315 315 315 315 314 313 314 314 314 314 312 311 310 311 312 310 309 308
292 292 291 291 290 290 290 290 291 291 292 294 297 300 301 300 299 298 298 299 300 302 302 299 295 293 298 308 317 323 324 322 321 320 321 323 327 332 335 334 332 329 329 329 330 331 332 332 332 333 333 334 336 339 341 341 337 332 327 324 322 320 318 316 316 315 315 315 315 315 315 314 313 313 313 314 313 313 313 313 314 315 316 316 316 315
294 293 291 291 291 291 291 291 292 294 296 299 300 300 299 298 297 297 297 298 299 299 297 293 290 292 299 309 317 321 322 321 320 320 321 323 327 332 334 333 329 327 326 327 329 330 331 331 332 333 335 337 341 343 344 341 336 331 327 324 322 320 318 316 315 314 314 314 314 314 314 313 312 313 313 312 313 314 316 318 320 321 321 321 321 321
293 292 292 293 293 293 293 294 296 298 300 300 298 296 295 295 296 296 297 298 299 297 294 290 288 291 300 309 316 319 320 319 319 320 322 324 327 330 332 330 327 325 324 326 328 329 330 331 333 335 338 342 345 346 343 340 335 331 328 327 324 321 318 316 314 313 313 312 312 312 311 311 311 312 312 312 312 314 316 318 320 321 322 323 323 322
292 292 293 293 292 290 291 292 294 295 295 294 293 292 292 293 294 296 298 298 297 294 291 287 285 289 298 308 314 317 318 318 319 321 322 323 325 328 330 328 325 324 324 326 328 329 330 332 334 338 342 345 347 345 341 339 336 334 333 330 327 322 318 314 312 310 309 308 308 309 309 309 309 310 311 312 312 312 313 314 316 318 320 321 320 319
295 295 295 293 290 288 287 287 288 288 288 287 287 288 289 290 292 294 296 297 294 291 288 284 283 287 298 307 312 315 316 317 319 321 323 321 322 325 328 327 326 324 324 326 327 329 330 333 336 340 344 346 345 343 341 339 339 339 338 335 330 323 317 312 308 306 305 304 304 305 306 307 309 310 312 313 314 313 313 314 315 316 318 318 317 316
300 299 298 296 293 289 287 285 285 285 285 285 286 287 289 289 290 291 293 292 290 287 283 280 280 287 298 305 310 312 314 316 318 321 322 321 321 323 326 327 326 325 325 326 327 329 331 334 337 341 343 343 342 341 340 341 342 342 341 338 332 325 318 313 308 305 303 303 303 305 308 311 313 315 316 316 316 316 315 315 315 316 316 317 316 316
306 306 305 304 300 296 292 290 289 289 290 291 292 293 293 291 289 288 287 285 283 279 276 275 279 287 296 302 306 310 313 315 318 321 322 322 322 323 326 327 326 325 325 326 328 329 332 334 337 340 341 341 340 340 340 342 343 344 343 340 334 328 321 316 311 308 307 307 308 311 314 317 319 319 319 318 317 316 315 315 314 314 314 315 315 315
312 312 312 311 308 303 299 297 296 295 295 295 296 296 295 293 291 287 284 280 277 274 272 274 280 289 296 302 306 310 313 316 319 322 324 324 323 323 324 326 326 325 325 327 329 330 331 331 333 336 338 339 339 340 341 343 345 346 345 342 337 331 326 320 316 313 312 312 314 317 319 321 322 321 320 319 317 316 315 314 314 314 313 313 312 312
313 314 314 312 308 304 300 295 293 292 291 291 291 292 293 293 293 292 288 284 279 275 273 277 288 298 305 309 311 312 315 318 322 324 326 325 323 321 322 325 326 327 327 327 328 328 327 327 329 333 336 338 340 341 342 345 346 347 346 344 340 336 330 325 320 316 315 316 318 320 321 322 322 322 321 320 318 317 317 317 317 316 314 313 311 310
311 313 313 311 308 305 300 295 291 288 286 285 285 286 288 290 293 295 295 291 285 279 277 288 301 309 312 313 313 314 317 321 324 326 327 325 321 319 321 324 327 328 328 327 326 326 325 325 327 331 335 337 339 341 343 345 347 348 347 346 343 339 334 329 324 320 319 319 320 321 322 323 323 323 322 321 321 321 321 322 321 319 317 315 313 312
308 312 313 311 308 304 301 298 295 292 289 287 285 284 284 285 288 290 292 290 285 282 287 299 308 312 312 312 313 316 319 323 325 326 326 323 320 319 322 325 328 329 329 327 326 326 325 326 328 331 333 336 339 341 344 346 347 348 348 347 345 342 338 332 327 324 322 322 322 322 323 324 325 325 325 325 326 327 328 327 325 323 320 318 316 314
306 311 312 309 305 299 295 293 293 294 294 293 291 290 288 287 286 287 288 287 284 285 294 304 309 310 310 312 314 317 320 323 325 325 324 322 320 320 323 326 328 329 329 327 326 325 325 327 329 330 332 335 338 340 343 345 346 347 347 347 346 344 340 335 330 327 324 323 323 324 325 326 327 328 329 331 333 334 334 331 329 325 322 320 317 315
309 311 311 309 304 298 292 288 288 289 291 293 296 297 298 296 293 290 287 284 283 287 297 304 307 308 309 311 313 314 316 321 324 326 325 323 321 321 323 325 327 327 327 325 325 324 323 324 327 331 333 335 337 340 342 343 345 346 346 346 346 345 342 338 333 329 327 326 326 327 328 330 331 333 335 337 339 339 337 333 330 327 324 321 318 315
310 309 308 306 305 302 298 293 288 287 288 291 294 298 302 303 299 292 285 282 285 292 300 303 305 307 308 310 310 311 313 320 326 327 326 323 320 320 322 324 325 324 323 322 321 320 318 318 323 328 333 335 338 339 341 342 344 345 345 345 345 345 343 340 336 333 330 329 330 331 332 334 335 337 340 341 342 341 338 335 332 329 325 321 318 315
305 304 302 301 301 302 304 303 299 294 292 292 295 298 301 303 300 292 286 288 294 299 302 303 304 305 306 307 308 310 315 322 327 327 324 321 319 318 320 322 322 321 321 320 319 318 316 315 319 324 329 333 336 338 340 342 343 344 345 344 344 344 344 342 339 337 335 335 335 336 336 337 338 340 342 343 343 341 339 337 334 330 326 322 318 316
301 300 299 298 298 300 304 307 307 304 300 298 298 298 300 300 297 294 294 299 302 303 301 300 300 301 303 305 308 312 317 324 326 324 321 318 317 318 320 321 321 320 320 320 321 320 319 318 319 321 324 329 333 337 339 341 342 343 344 344 344 344 345 345 343 341 340 340 340 339 339 339 340 341 343 343 342 342 340 339 337 333 329 324 320 318
298 298 298 298 299 302 306 309 311 310 308 305 302 299 297 294 293 294 299 302 302 301 298 296 296 298 301 305 309 313 318 322 323 321 318 317 317 318 320 320 321 322 322 321 322 322 321 320 320 321 322 325 330 335 339 341 341 342 343 343 343 345 347 347 347 346 344 343 342 342 341 341 342 342 342 342 341 341 341 341 340 337 333 328 323 320
297 298 299 301 303 306 309 311 312 312 310 307 303 298 293 290 291 294 298 299 297 294 292 292 295 299 302 306 310 314 317 319 320 319 317 317 318 319 320 320 322 323 322 322 322 321 320 320 320 321 322 323 326 331 337 340 341 341 341 342 342 344 348 350 350 349 347 346 344 343 343 342 341 341 340 340 340 340 341 342 342 340 336 332 327 323
298 299 301 303 306 308 310 311 311 310 308 305 298 290 284 285 290 294 296 295 291 286 285 289 295 300 305 309 312 314 316 318 318 318 317 317 318 319 319 320 322 323 323 322 321 320 319 319 320 321 322 323 325 328 333 337 339 340 340 341 342 344 348 351 352 351 349 347 346 344 343 342 340 339 338 338 338 339 339 340 341 340 338 334 330 325
300 301 303 305 307 310 311 311 310 307 303 297 286 276 272 277 285 291 292 288 284 280 280 287 295 302 308 312 314 315 316 317 316 316 316 315 316 318 319 320 322 323 322 321 320 319 319 319 320 321 322 323 324 327 330 334 336 338 338 338 340 343 347 350 351 350 349 347 345 343 342 340 338 337 336 336 337 337 337 338 339 339 337 334 330 326
302 303 304 306 308 310 311 310 308 303 296 287 275 267 266 272 281 285 285 281 277 275 279 287 297 305 311 314 315 316 315 314 314 314 313 313 314 316 318 320 321 321 321 320 319 318 318 319 320 320 320 322 323 326 329 332 334 336 336 336 338 341 345 348 349 349 348 346 344 342 339 338 336 336 335 335 335 336 337 337 338 339 337 334 330 327
301 302 303 305 307 309 310 309 305 298 288 278 269 265 266 272 276 277 276 273 271 272 280 290 300 308 312 315 316 316 314 313 312 311 311 311 312 315 317 319 319 319 319 318 317 318 318 319 320 320 320 321 322 324 327 330 333 335 335 335 336 338 343 345 347 347 346 344 342 340 338 336 335 335 334 334 335 336 337 338 339 339 338 336 333 329
299 301 302 304 305 307 307 306 302 295 282 270 266 267 268 270 269 268 266 265 267 273 284 295 303 308 312 316 317 315 313 310 309 309 309 310 312 315 317 318 318 318 317 317 317 317 319 320 321 321 321 320 321 322 324 328 331 334 335 335 335 335 337 341 345 345 344 342 340 339 337 336 336 335 335 335 336 337 339 341 342 341 340 338 334 331
299 301 303 304 306 306 306 303 300 293 279 266 264 267 266 264 262 259 258 260 267 279 292 300 305 310 315 318 318 316 312 309 308 308 310 312 314 316 317 318 318 318 317 316 316 317 319 321 322 322 321 320 319 320 322 326 330 333 334 335 334 334 335 339 343 343 342 340 339 339 338 337 336 336 336 336 338 339 341 343 345 345 344 341 336 331
302 303 305 306 306 305 304 301 297 289 274 261 259 261 260 257 254 253 253 259 273 288 297 301 305 311 318 322 322 320 317 314 312 313 314 315 316 317 317 317 317 317 317 317 318 319 320 321 322 321 320 319 318 318 321 325 328 331 334 335 336 336 337 339 341 341 340 339 340 340 339 338 337 337 337 338 340 342 344 346 348 348 347 344 339 334
305 306 306 306 305 303 301 298 293 284 272 262 258 256 251 248 247 247 252 265 281 292 298 302 307 314 320 324 326 325 324 321 320 320 319 319 319 319 318 318 318 318 318 320 321 323 323 323 322 321 319 318 317 318 321 324 327 330 333 335 337 337 337 338 339 339 339 339 340 340 340 339 338 338 338 340 342 345 348 351 352 352 350 347 343 340
305 305 304 303 302 300 298 296 292 286 277 267 255 246 240 239 240 244 256 274 288 296 301 307 314 320 324 326 327 327 326 325 325 325 325 324 323 322 322 322 322 322 321 322 323 324 325 324 322 321 320 318 318 320 323 326 327 329 332 335 337 337 338 339 339 339 339 339 339 340 341 340 340 340 341 343 345 349 353 356 357 357 356 354 351 350
303 303 302 302 301 300 298 296 294 290 282 265 246 235 231 233 238 249 266 281 293 302 309 313 319 325 328 329 328 327 327 327 328 328 328 328 327 327 327 327 327 326 325 324 324 325 325 323 321 321 320 320 321 324 327 328 329 330 333 336 337 338 338 339 339 339 339 339 340 341 341 342 342 343 345 346 349 352 357 360 1 2 1 1 2 4
309 308 306 305 303 301 300 299 298 292 275 247 231 227 228 233 243 258 273 286 299 309 315 318 323 327 331 332 331 330 330 329 329 329 329 329 329 330 331 332 331 330 327 325 326 327 327 324 322 321 322 323 325 327 329 330 332 333 336 338 339 338 338 338 339 340 340 340 341 342 343 344 345 347 348 350 352 354 359 2 5 7 7 9 13 18
317 315 312 310 308 306 305 303 298 280 247 227 223 225 230 238 250 265 281 296 307 314 319 322 326 330 334 335 334 333 332 331 330 330 330 330 331 333 334 334 333 332 330 328 329 331 333 330 326 323 325 328 329 330 331 333 336 337 339 340 339 338 338 338 339 340 340 341 342 343 345 347 348 350 352 352 353 355 358 4 10 15 18 21 24 29
323 320 317 315 313 312 309 301 278 244 223 219 221 227 235 247 259 274 291 304 312 317 321 326 329 333 336 336 335 333 332 331 330 331 332 332 333 334 334 334 334 333 333 332 333 338 345 344 335 328 331 335 335 334 334 336 338 339 340 340 340 339 338 338 339 340 340 341 343 345 348 350 352 354 354 353 352 353 358 5 14 24 30 34 36 38
326 323 320 317 313 308 297 269 232 219 215 218 223 232 244 257 271 286 299 307 313 319 324 328 332 335 336 336 335 333 331 330 330 332 334 333 334 334 334 334 335 335 336 337 337 342 354 5 2 347 343 344 344 342 340 339 339 339 339 339 340 339 338 339 339 340 340 342 344 347 350 353 356 358 357 354 351 352 358 7 20 32 40 44 45 46
325 323 319 311 301 284 252 219 209 212 217 223 232 242 255 268 284 297 306 312 318 323 327 330 333 336 337 336 335 333 331 329 330 333 335 333 333 334 334 334 336 338 339 341 343 346 352 4 18 26 11 357 352 348 344 342 340 338 338 339 340 340 340 339 339 340 341 344 347 350 353 355 357 359 359 356 353 353 358 9 23 37 45 48 47 46